TimeCST,TemperatureF,Dew PointF,Humidity,Sea Level PressureIn,VisibilityMPH,Wind Direction,Wind SpeedMPH,Gust SpeedMPH,PrecipitationIn,Events,Conditions,WindDirDegrees,DateUTC
12:15 AM,35.6,30.2,81,30.09,10.0,South,6.9,-,N/A,,Clear,170,2012-11-15 06:15:00
12:35 AM,37.4,30.2,75,30.09,10.0,SSW,4.6,-,N/A,,Clear,200,2012-11-15 06:35:00
12:55 AM,33.8,30.2,87,30.10,10.0,WSW,3.5,-,N/A,,Clear,240,2012-11-15 06:55:00
1:15 AM,33.8,30.2,87,30.09,10.0,SSW,3.5,-,N/A,,Clear,200,2012-11-15 07:15:00
1:34 AM,33.8,30.2,87,30.09,10.0,South,4.6,-,N/A,,Clear,180,2012-11-15 07:34:00
1:54 AM,33.8,28.4,81,30.09,10.0,South,3.5,-,N/A,,Clear,190,2012-11-15 07:54:00
2:14 AM,33.8,28.4,81,30.10,10.0,SSW,4.6,-,N/A,,Clear,210,2012-11-15 08:14:00
2:54 AM,32.0,28.4,87,30.12,10.0,Calm,Calm,-,N/A,,Clear,0,2012-11-15 08:54:00
3:15 AM,30.2,28.4,93,30.13,10.0,West,4.6,-,N/A,,Clear,280,2012-11-15 09:15:00
3:35 AM,28.4,26.6,93,30.13,10.0,Calm,Calm,-,N/A,,Clear,0,2012-11-15 09:35:00
3:54 AM,30.2,28.4,93,30.14,10.0,WNW,3.5,-,N/A,,Clear,290,2012-11-15 09:54:00
4:15 AM,30.2,28.4,93,30.14,10.0,West,3.5,-,N/A,,Clear,270,2012-11-15 10:15:00
4:35 AM,30.2,28.4,93,30.14,10.0,WNW,4.6,-,N/A,,Clear,290,2012-11-15 10:35:00
4:55 AM,30.2,28.4,93,30.16,10.0,WNW,3.5,-,N/A,,Clear,290,2012-11-15 10:55:00
5:15 AM,30.2,28.4,93,30.17,10.0,WNW,4.6,-,N/A,,Clear,290,2012-11-15 11:15:00
5:35 AM,30.2,28.4,93,30.18,10.0,WNW,8.1,-,N/A,,Clear,290,2012-11-15 11:35:00
5:55 AM,30.2,28.4,93,30.19,10.0,West,8.1,-,N/A,,Clear,280,2012-11-15 11:55:00
6:15 AM,32.0,28.4,87,30.21,10.0,WNW,9.2,-,N/A,,Clear,290,2012-11-15 12:15:00
6:34 AM,30.2,28.4,93,30.22,10.0,WNW,9.2,-,N/A,,Clear,300,2012-11-15 12:34:00
6:54 AM,30.2,26.6,86,30.24,10.0,WNW,8.1,-,N/A,,Clear,300,2012-11-15 12:54:00
7:15 AM,30.2,26.6,86,30.25,10.0,WNW,10.4,-,N/A,,Clear,290,2012-11-15 13:15:00
7:35 AM,28.4,26.6,93,30.27,10.0,WNW,9.2,-,N/A,,Clear,290,2012-11-15 13:35:00
7:54 AM,30.2,26.6,86,30.28,10.0,NW,12.7,-,N/A,,Clear,310,2012-11-15 13:54:00
8:15 AM,30.2,26.6,86,30.30,10.0,NW,13.8,17.3,N/A,,Clear,310,2012-11-15 14:15:00
8:35 AM,30.2,26.6,86,30.31,10.0,NW,12.7,17.3,N/A,,Clear,310,2012-11-15 14:35:00
8:55 AM,30.2,26.6,86,30.32,10.0,NW,10.4,18.4,N/A,,Clear,310,2012-11-15 14:55:00
9:15 AM,32.0,26.6,80,30.34,10.0,NW,16.1,20.7,N/A,,Clear,320,2012-11-15 15:15:00
9:35 AM,32.0,26.6,80,30.34,10.0,NW,12.7,20.7,N/A,,Clear,320,2012-11-15 15:35:00
9:55 AM,33.8,26.6,75,30.35,10.0,NNW,12.7,16.1,N/A,,Clear,330,2012-11-15 15:55:00
10:15 AM,33.8,24.8,70,30.37,10.0,NW,16.1,19.6,N/A,,Clear,320,2012-11-15 16:15:00
10:35 AM,33.8,24.8,70,30.38,10.0,NW,16.1,-,N/A,,Clear,320,2012-11-15 16:35:00
10:55 AM,33.8,24.8,70,30.39,10.0,NNW,17.3,21.9,N/A,,Clear,330,2012-11-15 16:55:00
11:15 AM,33.8,24.8,70,30.39,10.0,NW,15.0,-,N/A,,Clear,320,2012-11-15 17:15:00
11:35 AM,33.8,24.8,70,30.39,10.0,NNW,13.8,20.7,N/A,,Clear,330,2012-11-15 17:35:00
11:55 AM,33.8,23.0,65,30.39,10.0,NW,16.1,23.0,N/A,,Clear,320,2012-11-15 17:55:00
12:14 PM,35.6,23.0,60,30.40,10.0,NW,16.1,23.0,N/A,,Clear,320,2012-11-15 18:14:00
12:34 PM,35.6,23.0,60,30.40,10.0,NW,15.0,-,N/A,,Clear,320,2012-11-15 18:34:00
12:55 PM,35.6,23.0,60,30.41,10.0,NW,15.0,20.7,N/A,,Clear,320,2012-11-15 18:55:00
1:15 PM,35.6,23.0,60,30.41,10.0,NW,18.4,23.0,N/A,,Clear,320,2012-11-15 19:15:00
1:35 PM,35.6,21.2,56,30.42,10.0,NNW,17.3,21.9,N/A,,Clear,340,2012-11-15 19:35:00
1:54 PM,35.6,21.2,56,30.42,10.0,NW,18.4,21.9,N/A,,Clear,320,2012-11-15 19:54:00
2:14 PM,35.6,19.4,52,30.42,10.0,NW,13.8,20.7,N/A,,Clear,320,2012-11-15 20:14:00
2:34 PM,35.6,19.4,52,30.42,10.0,NW,12.7,-,N/A,,Clear,320,2012-11-15 20:34:00
2:54 PM,35.6,19.4,52,30.42,10.0,NW,13.8,-,N/A,,Clear,320,2012-11-15 20:54:00
3:14 PM,35.6,21.2,56,30.43,10.0,NW,13.8,18.4,N/A,,Clear,320,2012-11-15 21:14:00
3:34 PM,33.8,19.4,56,30.44,10.0,NNW,13.8,17.3,N/A,,Clear,340,2012-11-15 21:34:00
3:54 PM,33.8,19.4,56,30.45,10.0,NNW,15.0,-,N/A,,Clear,330,2012-11-15 21:54:00
4:15 PM,33.8,21.2,60,30.45,10.0,NNW,10.4,-,N/A,,Clear,330,2012-11-15 22:15:00
4:35 PM,32.0,19.4,60,30.46,10.0,NNW,10.4,-,N/A,,Clear,340,2012-11-15 22:35:00
4:55 PM,30.2,19.4,64,30.46,10.0,NW,6.9,-,N/A,,Clear,320,2012-11-15 22:55:00
5:15 PM,28.4,19.4,69,30.47,10.0,NW,6.9,-,N/A,,Clear,320,2012-11-15 23:15:00
5:35 PM,28.4,19.4,69,30.47,10.0,NW,5.8,-,N/A,,Clear,320,2012-11-15 23:35:00
5:55 PM,26.6,19.4,74,30.47,10.0,NNW,3.5,-,N/A,,Clear,330,2012-11-15 23:55:00
6:15 PM,26.6,19.4,74,30.47,10.0,NNW,5.8,-,N/A,,Clear,330,2012-11-16 00:15:00
6:35 PM,26.6,19.4,74,30.47,10.0,NNW,8.1,-,N/A,,Clear,340,2012-11-16 00:35:00
6:55 PM,24.8,19.4,80,30.48,10.0,North,4.6,-,N/A,,Clear,350,2012-11-16 00:55:00
7:35 PM,26.6,19.4,74,30.48,10.0,Calm,Calm,-,N/A,,Clear,0,2012-11-16 01:35:00
7:55 PM,24.8,19.4,80,30.48,10.0,Calm,Calm,-,N/A,,Clear,0,2012-11-16 01:55:00
8:16 PM,24.8,19.4,80,30.48,10.0,Calm,Calm,-,N/A,,Clear,0,2012-11-16 02:16:00
8:35 PM,24.8,19.4,80,30.48,10.0,Calm,Calm,-,N/A,,Clear,0,2012-11-16 02:35:00
8:54 PM,23.0,19.4,86,30.48,10.0,Calm,Calm,-,N/A,,Clear,0,2012-11-16 02:54:00
9:15 PM,24.8,19.4,80,30.48,10.0,WSW,3.5,-,N/A,,Clear,240,2012-11-16 03:15:00
9:35 PM,23.0,19.4,86,30.49,10.0,Calm,Calm,-,N/A,,Clear,0,2012-11-16 03:35:00
9:56 PM,21.2,19.4,93,30.48,10.0,Calm,Calm,-,N/A,,Clear,0,2012-11-16 03:56:00
10:14 PM,21.2,17.6,86,30.49,10.0,Calm,Calm,-,N/A,,Clear,0,2012-11-16 04:14:00
10:35 PM,21.2,19.4,93,30.50,10.0,Calm,Calm,-,N/A,,Clear,0,2012-11-16 04:35:00
10:55 PM,21.2,19.4,93,30.50,10.0,Calm,Calm,-,N/A,,Clear,0,2012-11-16 04:55:00
11:15 PM,21.2,19.4,93,30.50,10.0,Calm,Calm,-,N/A,,Clear,0,2012-11-16 05:15:00
11:35 PM,21.2,19.4,93,30.50,10.0,Calm,Calm,-,N/A,,Clear,0,2012-11-16 05:35:00
11:55 PM,19.4,15.8,86,30.51,10.0,South,4.6,-,N/A,,Clear,180,2012-11-16 05:55:00